TimeCST,TemperatureF,Dew PointF,Humidity,Sea Level PressureIn,VisibilityMPH,Wind Direction,Wind SpeedMPH,Gust SpeedMPH,PrecipitationIn,Events,Conditions,WindDirDegrees,DateUTC
12:53 AM,41.0,28.9,62,30.07,10.0,NW,8.1,-,N/A,,Clear,320,2012-11-07 06:53:00
1:53 AM,39.0,28.9,67,30.07,10.0,WNW,8.1,-,N/A,,Clear,300,2012-11-07 07:53:00
2:53 AM,39.0,28.9,67,30.07,10.0,West,8.1,-,N/A,,Clear,280,2012-11-07 08:53:00
3:53 AM,37.9,28.0,68,30.07,10.0,West,8.1,-,N/A,,Clear,280,2012-11-07 09:53:00
4:53 AM,37.9,28.0,68,30.10,10.0,WNW,8.1,-,N/A,,Clear,300,2012-11-07 10:53:00
5:53 AM,37.0,28.0,70,30.13,10.0,NW,9.2,-,N/A,,Clear,320,2012-11-07 11:53:00
6:53 AM,36.0,28.0,73,30.14,10.0,NW,6.9,-,N/A,,Partly Cloudy,320,2012-11-07 12:53:00
7:53 AM,39.0,30.0,70,30.17,10.0,NW,6.9,-,N/A,,Partly Cloudy,320,2012-11-07 13:53:00
8:53 AM,43.0,30.9,62,30.18,10.0,NW,9.2,-,N/A,,Scattered Clouds,320,2012-11-07 14:53:00
9:53 AM,46.9,32.0,56,30.19,10.0,North,9.2,-,N/A,,Scattered Clouds,360,2012-11-07 15:53:00
10:53 AM,48.9,32.0,52,30.19,10.0,North,9.2,-,N/A,,Scattered Clouds,10,2012-11-07 16:53:00
11:53 AM,51.1,30.9,46,30.17,10.0,NE,8.1,-,N/A,,Mostly Cloudy,40,2012-11-07 17:53:00
12:53 PM,52.0,30.9,45,30.14,10.0,Variable,6.9,-,N/A,,Mostly Cloudy,0,2012-11-07 18:53:00
1:53 PM,53.1,30.9,43,30.12,10.0,Variable,3.5,-,N/A,,Mostly Cloudy,0,2012-11-07 19:53:00
2:53 PM,53.1,30.9,43,30.11,10.0,Calm,Calm,-,N/A,,Mostly Cloudy,0,2012-11-07 20:53:00
3:53 PM,53.1,30.9,43,30.11,10.0,Variable,3.5,-,N/A,,Mostly Cloudy,0,2012-11-07 21:53:00
4:53 PM,50.0,30.9,48,30.11,10.0,ESE,3.5,-,N/A,,Scattered Clouds,110,2012-11-07 22:53:00
5:53 PM,48.9,30.9,50,30.11,10.0,East,6.9,-,N/A,,Scattered Clouds,100,2012-11-07 23:53:00
6:53 PM,45.0,30.9,58,30.12,10.0,ESE,5.8,-,N/A,,Clear,120,2012-11-08 00:53:00
7:53 PM,42.1,30.9,65,30.11,10.0,SE,6.9,-,N/A,,Clear,130,2012-11-08 01:53:00
8:53 PM,39.9,32.0,73,30.12,10.0,SE,8.1,-,N/A,,Clear,140,2012-11-08 02:53:00
9:53 PM,39.9,32.0,73,30.12,10.0,SE,8.1,-,N/A,,Clear,140,2012-11-08 03:53:00
10:53 PM,37.9,32.0,79,30.12,10.0,SSE,8.1,-,N/A,,Clear,150,2012-11-08 04:53:00
11:53 PM,39.9,32.0,73,30.12,10.0,SSE,10.4,-,N/A,,Clear,150,2012-11-08 05:53:00